Franklin, NC

3:37 AM EDT on September 28, 2016 (GMT -0400)
Franklin

Weather History for K1A5 - January, 2013

Change the Weather History Date:

Wednesday, January 9, 2013

  Actual Average (KTOC) Record (KTOC)
Temperature  
Mean Temperature 46 °F -  
Max Temperature 52 °F 48 °F 52 °F (2016)
Min Temperature 39 °F 29 °F 20 °F (2015)
Degree Days  
Heating Degree Days 20    
Moisture  
Dew Point 43 °F    
Average Humidity 91    
Maximum Humidity 99    
Minimum Humidity 81    
Precipitation  
Precipitation 0.00 in - - ()
Sea Level Pressure  
Sea Level Pressure 30.42 in    
Wind  
Wind Speed 0 mph (NNW)    
Max Wind Speed 4 mph    
Max Gust Speed -    
Visibility 8 miles    
Events Fog , Rain    
Averages and records for this station are not official NWS values.
T = Trace of Precipitation, MM = Missing Value Source: NWS Daily Summary

Daily Weather History Graph

Daily Weather History Graph

Search for Another Location

Airport or City:

Trip Planner

Search our weather history database for the weather conditions in past years. The results will help you decide how hot, cold, wet, or windy it might be!

Date:

Astronomy

Jan. 09, 2013 Rise Set
Actual Time 7:42 AM EST 5:39 PM EST
Civil Twilight 7:14 AM EST 6:07 PM EST
Nautical Twilight 6:43 AM EST 6:38 PM EST
Astronomical Twilight 6:12 AM EST 7:09 PM EST
Moon 5:20 AM EST (1/9) 3:40 PM EST (1/9)
Length of Visible Light 10h 52m
Length of Day
9h 56m
Waning Crescent, 6% of the Moon is Illuminated
Jan 9
Waning Crescent
Jan 11
New
Jan 18
First Quarter
Jan 26
Full
Feb 3
Last Quarter

Hourly Weather History & Observations

Time (EST) Temp. Windchill Dew Point Humidity Pressure Visibility Wind Dir Wind Speed Gust Speed Precip Events Conditions
12:15 AM 39.2 °F - 37.4 °F 93% 30.37 in 10.0 mi Calm Calm - N/A   Overcast
12:55 AM 40.1 °F - 37.4 °F 90% 30.38 in 7.0 mi Calm Calm - N/A   Overcast
1:15 AM 40.5 °F - 37.8 °F 90% 30.38 in 10.0 mi Calm Calm - N/A   Overcast
1:35 AM 41.0 °F - 37.6 °F 88% 30.38 in 10.0 mi Calm Calm - N/A   Overcast
1:55 AM 41.0 °F - 37.8 °F 88% 30.39 in 10.0 mi Calm Calm - N/A   Overcast
2:15 AM 41.0 °F - 38.1 °F 89% 30.39 in 10.0 mi Calm Calm - N/A   Overcast
2:35 AM 41.4 °F - 37.9 °F 88% 30.39 in 10.0 mi Calm Calm - N/A   Overcast
2:55 AM 41.9 °F - 38.3 °F 87% 30.38 in 10.0 mi Calm Calm - N/A   Overcast
3:15 AM 41.9 °F - 38.3 °F 87% 30.38 in 10.0 mi Calm Calm - N/A   Overcast
3:35 AM 42.1 °F - 38.5 °F 87% 30.39 in 10.0 mi Calm Calm - N/A   Overcast
3:55 AM 42.1 °F - 38.7 °F 88% 30.38 in 10.0 mi Calm Calm - N/A   Overcast
4:15 AM 42.4 °F - 38.8 °F 87% 30.38 in 10.0 mi Calm Calm - N/A   Overcast
4:35 AM 42.4 °F - 38.5 °F 86% 30.38 in 10.0 mi Calm Calm - N/A   Overcast
4:55 AM 42.8 °F - 38.8 °F 86% 30.38 in 10.0 mi Calm Calm - N/A   Overcast
5:15 AM 42.8 °F - 38.8 °F 86% 30.38 in 10.0 mi Calm Calm - N/A   Overcast
5:35 AM 42.8 °F - 39.0 °F 86% 30.38 in 10.0 mi Calm Calm - N/A   Overcast
5:55 AM 43.2 °F - 39.2 °F 86% 30.38 in 10.0 mi Calm Calm - N/A   Overcast
6:15 AM 43.0 °F 41.3 °F 39.4 °F 87% 30.40 in 10.0 mi West 3.5 mph - N/A   Overcast
6:35 AM 43.2 °F - 39.2 °F 86% 30.40 in 10.0 mi Calm Calm - N/A   Overcast
6:55 AM 43.7 °F - 39.2 °F 84% 30.41 in 10.0 mi Calm Calm - N/A   Overcast
7:15 AM 43.7 °F 42.1 °F 39.6 °F 85% 30.41 in 10.0 mi NE 3.5 mph - N/A   Overcast
7:35 AM 43.9 °F - 39.6 °F 85% 30.42 in 10.0 mi Calm Calm - N/A   Overcast
8:15 AM 44.1 °F - 40.1 °F 86% 30.43 in 10.0 mi Calm Calm - N/A   Overcast
8:35 AM 44.6 °F - 40.1 °F 84% 30.44 in 10.0 mi Calm Calm - N/A   Overcast
8:55 AM 45.7 °F - 40.3 °F 81% 30.44 in 10.0 mi Calm Calm - N/A   Overcast
9:15 AM 46.0 °F - 40.5 °F 81% 30.44 in 10.0 mi Calm Calm - N/A   Overcast
9:35 AM 46.6 °F - 41.2 °F 81% 30.45 in 10.0 mi Calm Calm - N/A   Overcast
9:55 AM 46.8 °F - 41.7 °F 83% 30.46 in 10.0 mi Calm Calm - N/A   Overcast
10:15 AM 47.3 °F - 42.4 °F 83% 30.46 in 10.0 mi Calm Calm - N/A   Overcast
10:35 AM 47.3 °F - 42.8 °F 84% 30.47 in 7.0 mi Calm Calm - N/A Rain Light Rain
10:55 AM 47.7 °F - 43.3 °F 85% 30.46 in 7.0 mi Calm Calm - N/A   Light Drizzle
11:15 AM 48.2 °F - 44.2 °F 86% 30.46 in 7.0 mi Calm Calm - N/A   Overcast
11:35 AM 48.4 °F - 44.6 °F 87% 30.45 in 7.0 mi Calm Calm - N/A   Overcast
11:55 AM 49.1 °F - 45.9 °F 89% 30.45 in 7.0 mi Calm Calm - N/A Rain Light Rain
12:15 PM 49.1 °F - 46.0 °F 89% 30.44 in 7.0 mi Calm Calm - N/A   Light Drizzle
12:35 PM 49.1 °F - 46.8 °F 92% 30.42 in 7.0 mi Calm Calm - N/A Rain Light Rain
12:55 PM 49.6 °F - 48.2 °F 95% 30.42 in 7.0 mi Calm Calm - N/A   Light Drizzle
1:15 PM 49.8 °F - 48.6 °F 95% 30.42 in 7.0 mi Calm Calm - N/A   Light Drizzle
1:35 PM 50.0 °F - 49.1 °F 97% 30.41 in 7.0 mi Calm Calm - N/A Rain Light Rain
1:55 PM 50.0 °F - 49.1 °F 97% 30.40 in 7.0 mi Calm Calm - N/A   Scattered Clouds
2:15 PM 50.2 °F - 49.3 °F 97% 30.40 in 7.0 mi Calm Calm - N/A   Overcast
2:35 PM 50.0 °F - 48.7 °F 95% 30.40 in 7.0 mi Calm Calm - N/A   Overcast
2:55 PM 50.4 °F - 48.6 °F 94% 30.41 in 10.0 mi Calm Calm - N/A   Overcast
3:15 PM 50.9 °F - 48.7 °F 92% 30.41 in 7.0 mi Calm Calm - N/A   Overcast
3:35 PM 51.3 °F - 49.1 °F 92% 30.41 in 10.0 mi Calm Calm - N/A   Overcast
3:55 PM 51.4 °F - 48.7 °F 90% 30.41 in 10.0 mi Calm Calm - N/A   Overcast
4:15 PM 52.2 °F - 48.7 °F 88% 30.42 in 10.0 mi Calm Calm - N/A   Mostly Cloudy
4:35 PM 51.8 °F - 47.7 °F 86% 30.42 in 10.0 mi Calm Calm - N/A   Scattered Clouds
4:55 PM 51.8 °F - 48.2 °F 88% 30.42 in 10.0 mi Calm Calm - N/A   Scattered Clouds
5:15 PM 51.1 °F - 47.8 °F 89% 30.42 in 10.0 mi Calm Calm - N/A   Scattered Clouds
5:35 PM 50.2 °F - 48.9 °F 95% 30.42 in 10.0 mi Calm Calm - N/A   Scattered Clouds
5:55 PM 48.6 °F - 47.8 °F 97% 30.43 in 7.0 mi Calm Calm - N/A   Scattered Clouds
6:15 PM 47.8 °F - 47.7 °F 99% 30.43 in 7.0 mi Calm Calm - N/A   Mostly Cloudy
6:35 PM 46.8 °F - 46.6 °F 99% 30.43 in 5.0 mi Calm Calm - N/A   Scattered Clouds
6:55 PM 46.9 °F - 46.6 °F 99% 30.43 in 5.0 mi Calm Calm - N/A   Clear
7:15 PM 46.4 °F - 46.0 °F 99% 30.42 in 5.0 mi Calm Calm - N/A   Clear
7:35 PM 46.4 °F - 45.9 °F 98% 30.42 in 5.0 mi Calm Calm - N/A   Clear
7:55 PM 45.5 °F - 44.8 °F 97% 30.42 in 4.0 mi Calm Calm - N/A   Clear
8:15 PM 45.5 °F - 45.0 °F 98% 30.43 in 4.0 mi Calm Calm - N/A   Clear
8:35 PM 45.9 °F - 45.3 °F 98% 30.44 in 4.0 mi Calm Calm - N/A   Clear
8:55 PM 45.5 °F - 44.6 °F 97% 30.44 in 4.0 mi Calm Calm - N/A   Clear
9:15 PM 45.5 °F - 44.6 °F 97% 30.45 in 4.0 mi Calm Calm - N/A   Clear
9:35 PM 44.8 °F - 44.1 °F 97% 30.46 in 3.0 mi Calm Calm - N/A   Clear
9:55 PM 44.6 °F - 43.7 °F 97% 30.46 in 3.0 mi Calm Calm - N/A   Scattered Clouds
10:15 PM 45.1 °F - 44.6 °F 98% 30.46 in 3.0 mi Calm Calm - N/A   Scattered Clouds
10:35 PM 44.6 °F - 43.7 °F 97% 30.46 in 2.5 mi Calm Calm - N/A   Mostly Cloudy
10:55 PM 44.6 °F - 43.7 °F 97% 30.47 in 3.0 mi Calm Calm - N/A   Scattered Clouds
11:15 PM 44.6 °F - 43.7 °F 97% 30.47 in 3.0 mi Calm Calm - N/A   Scattered Clouds
11:35 PM 43.5 °F - 42.6 °F 97% 30.46 in 2.0 mi Calm Calm - N/A   Mostly Cloudy
11:55 PM 41.9 °F - 41.0 °F 97% 30.47 in 0.5 mi Calm Calm - N/A Fog Fog